Regional Weather Roundup
Issued by NWS

Home | Current Version | Previous Version | Text Only | Print | Product List | Glossary On
Versions: 1 2 3 4 5 6 7 8 9 10 11 12 13 14 15 16 17 18 19 20 21 22 23 24 25 26 27 28 29 30 31 32 33 34 35 36 37 38 39 40 41 42 43 44 45 46 47 48 49 50
000
ASUS45 KREV 300310
RWRNV
NEVADA REGIONAL WEATHER ROUNDUP
NATIONAL WEATHER SERVICE RENO NV
800 PM PDT FRI JUL 29 2016

NOTE: "FAIR" INDICATES FEW OR NO CLOUDS BELOW 12,000 FEET WITH NO
SIGNIFICANT WEATHER AND/OR OBSTRUCTIONS TO VISIBILITY.

NVZ001-003-004-300400-
WESTERN NEVADA

CITY           SKY/WX    TMP DP  RH WIND       PRES   REMARKS
RENO           PTCLDY    93  42  17 W14       29.98R
CARSON CITY    FAIR      90  37  15 SW6       30.04R
MINDEN         FAIR      86  41  20 W10       30.04R
SLIDE MTN        N/A     68  36  30 W17         N/A
PYRAMID LAKE     N/A     95 N/A N/A SW3         N/A
FALLON         CLOUDY    91  42  18 S18G35    29.92S
LOVELOCK       PTCLDY    98  38  12 W17       29.88R
HAWTHORNE      CLEAR     90  50  25 NW13      29.99S
$$

NVZ002-CAZ072-073-300400-
NORTHERN AND CENTRAL SIERRA

CITY           SKY/WX    TMP DP  RH WIND       PRES   REMARKS
S. LAKE TAHOE  CLEAR     78  39  24 SW5       30.18R
TRUCKEE        CLEAR     81  37  21 W7        30.16S
SQUAW VLY 8000 NOT AVBL
SUSANVILLE     CLEAR     93  46  20 W13       29.96
MAMMOTH LAKES    N/A     78  40  25 W12       30.26R
BRIDGEPORT       N/A     79  35  20 NW10      30.20R
$$

NVZ030-031-036-300400-
NORTHERN NEVADA

CITY           SKY/WX    TMP DP  RH WIND       PRES   REMARKS
ELKO           PTCLDY    91  32  12 NE7       29.99R
WINNEMUCCA     PTCLDY    91  36  14 NW6       29.90S
WENDOVER       MOCLDY    90  39  17 W13       29.96S
$$

NVZ035-037-300400-
CENTRAL NEVADA

CITY           SKY/WX    TMP DP  RH WIND       PRES   REMARKS
ELY            MOCLDY    73  48  41 SE14      30.16R
EUREKA           N/A     82  40  22 SE7       30.10R
$$

NVZ013-014-300400-
SOUTH CENTRAL NEVADA

CITY           SKY/WX    TMP DP  RH WIND       PRES   REMARKS
TONOPAH        CLOUDY    83  46  27 E16G26    30.13R
$$

NVZ017-020-022-300400-
SOUTHERN NEVADA

CITY           SKY/WX    TMP DP  RH WIND       PRES   REMARKS
LAS VEGAS      PTCLDY   108  39   9 CALM      29.69R
N. LAS VEGAS   PTCLDY   106  46  13 N6        29.73R
NELLIS AFB     PTCLDY   107  45  12 NE10      29.70R
HENDERSON      PTCLDY   105  47  14 S9        29.77R
MERCURY        CLOUDY    99  44  15 E14       29.90R
$$



USA.gov is the U.S. government's official web portal to all federal, state and local government web resources and services.